Location: Fernhill
(41.0167°S, 175.6333°E)
Time: 00:59:40
(UTC+00:00)

USA 59 Rocket - Pass Details

Date: 08 November 2025
Orbit: 370 x 1678 km, 63.3° (Epoch: 13 December)

Event Time Altitude Azimuth Distance (km) Brightness Sun altitude
Rises 07:18:36 0° 262° (W) 4,690 6.3 -2.9°
Reaches altitude 10° 07:22:28 10° 248° (WSW) 3,842 6.1 -3.6°
Maximum altitude 07:30:04 24° 199° (SSW) 3,029 4.2 -4.9°
Drops below altitude 10° 07:37:49 10° 150° (SSE) 3,914 4.1 -6.2°
Sets 07:41:51 0° 136° (SE) 4,796 4.4 -6.8°
